Location: ?????????
(42.1392°N, 44.1931°E)
Time: 08:46:42
(UTC+00:00)

Cosmos 1151 Rocket - Pass Details

Date: 07 June 2020
Orbit: 593 x 615 km, 82.5° (Epoch: 05 July)

Event Time Altitude Azimuth Distance (km) Brightness Sun altitude
Rises 23:58:01 0° 357° (N) 2,894 7.3 -13.4°
Reaches altitude 10° 00:00:19 10° 4° (N) 1,985 6.5 -13.1°
Maximum altitude 00:04:34 46° 78° (ENE) 826 4.1 -12.6°
Drops below altitude 10° 00:08:46 10° 153° (SSE) 1,968 5.4 -12.1°
Sets 00:11:03 0° 159° (SSE) 2,866 6.2 -11.8°
